Tracking 31027 objects as of 19-Jul-2025
HD Live streaming from Space Station
objects crossing your sky now

DELTA 1 DEB

Track DELTA 1 DEB now!
10-day predictions


NORAD ID: 7026
Int'l Code: 1973-086S
Perigee: 1,315.4 km
Apogee: 1,515.1 km
Inclination: 102.1 °
Period: 114.0 minutes
Semi major axis: 7786 km
RCS: 0.0707 m2 (small)
Launch date: November 6, 1973
Source: United States (US)
Launch site: AIR FORCE WESTERN TEST RANGE (AFWTR)

Note: This is SATELLITE DEBRIS
Your satellite tracking list
DMSP 5D-2 F13 DEB
Track 1 satellite(s)




NASA's NSSDC Master Catalog

Two Line Element Set (TLE):
1 07026U 73086S   25199.76919904 -.00000069  00000-0 -11361-3 0  9992
2 07026 102.0872 298.5578 0128277  75.0669  78.2689 12.63602528372514
Source of the keplerian elements: AFSPC